M-CUBED & EXP-1 PRIME

Last updated on Dec. 9, 2021, 12:02 a.m. UTC

1 37855U 11061F   21342.56677216  .00002509  00000+0  12434-3 0  9991
2 37855 101.7231 356.5654 0163045 272.4534  85.8023 15.08906140552423
UTC
Height (km)
Latitude
Longitude
Inclination
Orbital Period
UTC large
Height (km)
Speed (km/s)
/
Latitude / Longitude
Inclination (degrees)
Orbital Period (minutes)
Azimuth
Elevation
Range (km)
Doppler Factor
iOS Compass Heading
iOS Angle